{"data":{"norad_id":61949,"intl_designator":"2024-209L","name":"STARLINK-11424 [DTC]","alt_names":[],"object_type":"PAYLOAD","status":"ACTIVE","operator":null,"country":"US","launch_date":"2024-11-14","launch_site_code":"AFWTR","launch_vehicle":null,"mission":null,"orbit_class":"UNKNOWN","rcs_meters":null,"size_class":null,"mass_kg":null,"dimensions":null,"purposes":["comms"],"wikipedia_slug":null,"has_3d_model":false,"image_url":null,"decayed_at":null,"tle_current":{"epoch":"2026-05-24T23:49:04.547136Z","epoch_age_seconds":79300,"freshness":"FRESH","line1":"1 61949U 24209L   26144.99241374  .00195165  00000+0  15742-2 0  9999","line2":"2 61949  53.1574 355.0019 0000737  68.6826 291.4270 15.69769815 88662","mean_motion":15.69769815,"eccentricity":7.37e-5,"inclination_deg":53.1574,"raan_deg":355.0019,"arg_perigee_deg":68.6826,"mean_anomaly_deg":291.427,"bstar":0.0015742,"rev_number":8866,"period_min":91.733194653128,"perigee_km":359.0590202772,"apogee_km":360.05215616471,"semimajor_km":6737.692588221,"source":"CELESTRAK","updated_at":"2026-05-25T13:38:19.488163Z"}}}